GW2412 Weather Reports


Display with metric or nautical units.
time (UTC)temp
F
wind
direction
speed
MPH
gust
MPH
rain 1hr
in
rain 24hr
in
rain mn
in
humidity
%
barometer
mb
20260906014548 60 320 12.0 16.0 0.00 0.07 0.07 1 1019.6
20260906014018 60 325 10.0 14.0 0.00 0.07 0.07 1 1019.6
20260906013518 60 325 9.0 16.0 0.00 0.07 0.07 1 1019.5
20260906013038 61 296 10.0 15.0 0.00 0.07 0.07 1 1019.3
20260906012516 61 318 11.0 15.0 0.00 0.07 0.07 1 1019.5
20260906012015 61 348 8.0 14.0 0.00 0.07 0.07 1 1019.6
20260906011542 61 320 11.0 16.0 0.00 0.07 0.07 1 1019.4
20260906011016 61 346 10.0 16.0 0.00 0.07 0.07 1 1019.5
20260906010517 61 330 9.0 18.0 0.00 0.07 0.07 1 1019.5
20260906010043 61 323 13.0 20.0 0.00 0.07 0.07 1 1019.4
20260906005518 61 340 13.0 21.0 0.00 0.07 0.07 1 1019.5
20260906005016 61 350 13.0 23.0 0.00 0.07 0.07 1 1019.6
20260906004549 61 344 16.0 22.0 0.00 0.07 0.07 1 1019.6
20260906004017 62 336 12.0 21.0 0.00 0.07 0.07 1 1019.5
20260906003516 62 346 15.0 23.0 0.00 0.07 0.07 1 1019.4
20260906003042 62 329 15.0 23.0 0.00 0.07 0.07 1 1019.7
20260906002515 62 314 12.0 20.0 0.00 0.07 0.07 1 1019.8
20260906002017 62 333 16.0 20.0 0.00 0.07 0.07 1 1019.4
20260906001558 63 352 14.0 21.0 0.00 0.07 0.07 1 1019.6
20260906001016 63 341 16.0 21.0 0.00 0.07 0.07 1 1019.7
20260906000516 63 355 13.0 21.0 0.00 0.07 0.07 1 1019.9
20260906000046 63 355 14.0 20.0 0.00 0.07 0.07 1 1020.0
20260905235517 63 325 13.0 19.0 0.00 0.07 0.07 1 1020.1
20260905235019 63 333 14.0 19.0 0.00 0.07 0.07 1 1020.1
20260905234544 64 340 13.0 19.0 0.00 0.07 0.07 1 1020.2
20260905234016 64 336 12.0 19.0 0.00 0.07 0.07 1 1020.2
20260905233518 64 355 12.0 19.0 0.00 0.07 0.07 1 1020.0
20260905233040 64 333 15.0 19.0 0.00 0.07 0.07 1 1019.9
20260905232520 65 360 13.0 18.0 0.00 0.07 0.07 1 1020.0
20260905232016 65 5 12.0 18.0 0.00 0.07 0.07 1 1019.7
20260905231540 65 328 13.0 19.0 0.00 0.07 0.07 1 1019.9
20260905231019 65 351 10.0 19.0 0.00 0.07 0.07 1 1019.8
20260905230515 65 325 12.0 19.0 0.00 0.07 0.07 1 1019.9
20260905230047 65 317 14.0 18.0 0.00 0.07 0.07 1 1019.8
20260905225520 65 346 11.0 19.0 0.00 0.07 0.07 1 1019.6
20260905225018 65 330 13.0 19.0 0.00 0.07 0.07 1 1019.8
20260905224542 65 340 13.0 19.0 0.00 0.07 0.07 1 1019.7
20260905224018 66 313 9.0 18.0 0.00 0.07 0.07 1 1020.0
20260905223518 65 344 11.0 18.0 0.00 0.07 0.07 1 1020.2
20260905223049 66 302 8.0 13.0 0.00 0.07 0.07 1 1020.1
20260905222517 66 350 8.0 14.0 0.00 0.07 0.07 1 1020.2
20260905222016 66 317 8.0 14.0 0.00 0.07 0.07 1 1020.3
20260905221543 66 296 8.0 14.0 0.00 0.07 0.07 1 1020.2
20260905221019 67 321 5.0 13.0 0.00 0.07 0.07 1 1020.3
20260905220519 67 319 8.0 13.0 0.00 0.07 0.07 1 1020.2
20260905220042 67 326 7.0 13.0 0.00 0.07 0.07 1 1020.1
20260905215518 67 271 7.0 12.0 0.00 0.07 0.07 1 1020.2
20260905215019 67 355 6.0 11.0 0.00 0.07 0.07 1 1020.2
20260905214546 67 322 7.0 10.0 0.00 0.07 0.07 1 1020.2
20260905214017 67 240 5.0 10.0 0.00 0.07 0.07 1 1020.2
20260905213518 67 210 5.0 14.0 0.00 0.07 0.07 1 1020.3
20260905213048 67 311 3.0 14.0 0.00 0.07 0.07 1 1020.2
20260905212524 67 221 7.0 13.0 0.00 0.07 0.07 1 1020.2
20260905212018 67 246 8.0 11.0 0.00 0.07 0.07 1 1020.2
20260905211539 67 226 5.0 12.0 0.00 0.07 0.07 1 1020.3
20260905211018 67 269 5.0 12.0 0.00 0.07 0.07 1 1020.3
20260905210518 67 282 7.0 10.0 0.00 0.07 0.07 1 1020.3
20260905210053 67 323 7.0 14.0 0.00 0.07 0.07 1 1020.4
20260905205516 67 325 6.0 14.0 0.00 0.07 0.07 1 1020.4
20260905205017 67 307 7.0 12.0 0.00 0.07 0.07 1 1020.3
20260905204539 66 296 9.0 12.0 0.00 0.07 0.07 1 1020.3
20260905204020 66 288 6.0 12.0 0.00 0.07 0.07 1 1020.3
20260905203521 65 317 6.0 13.0 0.00 0.07 0.07 1 1020.3
20260905203039 66 338 10.0 13.0 0.00 0.07 0.07 1 1020.2
20260905202518 66 314 8.0 13.0 0.00 0.07 0.07 1 1020.4
20260905202018 66 242 1.0 11.0 0.00 0.07 0.07 1 1020.4
20260905201541 66 241 7.0 11.0 0.00 0.07 0.07 1 1020.5
20260905201017 66 267 2.0 9.0 0.00 0.07 0.07 1 1020.5
20260905200520 66 215 4.0 10.0 0.00 0.07 0.07 1 1020.5
20260905200106 66 301 5.0 10.0 0.00 0.07 0.07 1 1020.5
20260905195518 66 262 4.0 10.0 0.00 0.07 0.07 1 1020.5
20260905195017 66 187 4.0 10.0 0.00 0.07 0.07 1 1020.5
20260905194545 66 342 4.0 10.0 0.00 0.07 0.07 1 1020.7
20260905194018 65 232 6.0 10.0 0.00 0.07 0.07 1 1020.7
20260905193516 65 338 0.0 11.0 0.00 0.07 0.07 1 1020.6
20260905193042 64 355 3.0 14.0 0.00 0.07 0.07 1 1020.4
20260905192518 64 298 6.0 10.0 0.00 0.07 0.07 1 1020.5
20260905192018 64 296 3.0 9.0 0.00 0.07 0.07 1 1020.6
20260905191542 64 275 4.0 12.0 0.00 0.07 0.07 1 1020.5
20260905191020 64 253 8.0 12.0 0.00 0.07 0.07 1 1020.7
20260905190516 64 271 4.0 9.0 0.00 0.07 0.07 1 1020.7
20260905190041 64 294 4.0 9.0 0.00 0.07 0.07 1 1020.9
20260905185518 64 267 6.0 9.0 0.00 0.07 0.07 1 1021.1
20260905185017 63 298 3.0 10.0 0.00 0.07 0.07 1 1021.0
20260905184554 63 257 6.0 10.0 0.00 0.07 0.07 1 1021.1
20260905184018 63 234 5.0 10.0 0.00 0.07 0.07 1 1021.1
20260905183516 63 252 4.0 10.0 0.00 0.07 0.07 1 1021.0
20260905183044 63 287 4.0 9.0 0.00 0.07 0.07 1 1020.9
20260905182518 62 295 3.0 10.0 0.00 0.07 0.07 1 1021.0
20260905182018 62 267 4.0 10.0 0.00 0.07 0.07 1 1021.0
20260905181546 62 241 2.0 6.0 0.00 0.07 0.07 1 1021.1
20260905181017 62 340 2.0 5.0 0.00 0.07 0.07 1 1021.1
20260905180519 62 316 1.0 4.0 0.00 0.07 0.07 1 1021.1
20260905180042 61 316 2.0 5.0 0.00 0.07 0.07 1 1021.1
20260905175525 61 316 3.0 5.0 0.00 0.07 0.07 1 1021.0
20260905175019 61 316 1.0 5.0 0.00 0.07 0.07 1 1020.9
20260905174540 60 302 4.0 5.0 0.00 0.07 0.07 1 1020.9
20260905174018 60 345 2.0 6.0 0.00 0.07 0.07 1 1021.0
20260905173519 60 313 4.0 8.0 0.00 0.07 0.07 1 1020.8
20260905173050 60 335 5.0 8.0 0.00 0.07 0.07 1 1020.8
20260905172518 60 319 3.0 8.0 0.00 0.07 0.07 1 1020.9
20260905172018 60 315 4.0 8.0 0.00 0.07 0.07 1 1020.7
20260905171540 59 319 3.0 8.0 0.00 0.07 0.07 1 1021.0
20260905171018 59 303 3.0 8.0 0.00 0.07 0.07 1 1020.9
20260905170522 58 299 3.0 8.0 0.00 0.07 0.07 1 1020.8
20260905170038 58 299 5.0 10.0 0.00 0.07 0.07 1 1021.0
20260905165517 58 286 6.0 11.0 0.00 0.07 0.07 1 1020.8
20260905165023 58 279 8.0 11.0 0.00 0.07 0.07 1 1020.6
20260905164545 57 296 6.0 11.0 0.00 0.07 0.07 1 1020.8
20260905164020 57 310 7.0 11.0 0.00 0.07 0.07 1 1020.8
20260905163519 56 288 5.0 9.0 0.00 0.07 0.07 1 1020.8
20260905163043 55 262 5.0 10.0 0.00 0.07 0.07 1 1021.0
20260905162518 55 269 6.0 11.0 0.00 0.07 0.07 1 1021.0
20260905162020 54 273 8.0 11.0 0.00 0.07 0.07 1 1020.7
20260905161541 54 263 8.0 11.0 0.00 0.07 0.07 1 1020.8
20260905161023 54 265 8.0 12.0 0.00 0.07 0.07 1 1020.7
20260905160519 54 246 9.0 12.0 0.00 0.07 0.07 1 1020.8
20260905160045 54 231 7.0 11.0 0.00 0.07 0.07 1 1020.8
20260905155518 55 215 3.0 5.0 0.00 0.07 0.07 1 1020.7
20260905155017 55 256 3.0 4.0 0.00 0.07 0.07 1 1020.7
20260905154545 55 256 1.0 7.0 0.00 0.07 0.07 1 1020.5
20260905154018 55 256 1.0 7.0 0.00 0.07 0.07 1 1020.3
20260905153518 55 304 3.0 8.0 0.01 0.07 0.07 1 1020.3
20260905153039 55 304 3.0 10.0 0.01 0.07 0.07 1 1020.2
20260905152523 55 312 5.0 10.0 0.01 0.07 0.07 1 1020.1
20260905152019 54 344 7.0 10.0 0.01 0.07 0.07 1 1020.1
20260905151555 54 310 7.0 9.0 0.01 0.07 0.07 1 1020.3
20260905151021 54 313 5.0 8.0 0.01 0.07 0.07 1 1020.2
20260905150521 53 309 2.0 6.0 0.01 0.07 0.07 1 1020.4
20260905150046 53 304 3.0 10.0 0.01 0.07 0.07 1 1020.3
20260905145516 53 308 4.0 13.0 0.01 0.07 0.07 1 1020.2
20260905145018 53 315 6.0 15.0 0.02 0.07 0.07 1 1020.0
20260905144546 53 335 9.0 15.0 0.03 0.07 0.07 1 1019.9
20260905144016 52 346 6.0 10.0 0.03 0.07 0.07 1 1020.1
20260905143516 52 304 7.0 12.0 0.03 0.06 0.06 1 1020.2
20260905143039 52 325 9.0 12.0 0.03 0.06 0.06 1 1020.1
20260905142525 52 316 5.0 12.0 0.04 0.06 0.06 1 1020.0
20260905142019 52 331 7.0 12.0 0.04 0.06 0.06 1 1020.0
20260905141546 51 339 7.0 10.0 0.04 0.06 0.06 1 1020.1
20260905141020 51 326 6.0 10.0 0.04 0.06 0.06 1 1020.1
20260905140518 51 301 7.0 10.0 0.06 0.06 0.06 1 1020.3
20260905140054 51 312 6.0 9.0 0.06 0.06 0.06 1 1020.4
20260905135518 51 295 3.0 5.0 0.06 0.06 0.06 1 1020.8
20260905135021 51 295 3.0 7.0 0.04 0.04 0.04 1 1020.9
20260905134550 52 295 4.0 11.0 0.04 0.04 0.04 1 1020.8
20260905134021 52 286 8.0 13.0 0.04 0.04 0.04 1 1020.9
20260905133521 52 266 10.0 13.0 0.03 0.03 0.03 1 1021.1
20260905133047 52 253 10.0 16.0 0.03 0.03 0.03 1 1021.0
20260905132517 52 252 10.0 16.0 0.02 0.02 0.02 1 1021.1
20260905132019 52 269 11.0 13.0 0.01 0.01 0.01 1 1020.7
20260905131553 52 297 4.0 9.0 0.01 0.01 0.01 1 1020.3
20260905131020 52 265 8.0 9.0 0.01 0.01 0.01 1 1020.5
20260905130518 52 262 4.0 6.0 0.00 0.00 0.00 1 1020.2
20260905130052 52 15 3.0 4.0 0.00 0.00 0.00 1 1020.0
20260905125516 52 15 0.0 1.0 0.00 0.00 0.00 1 1020.0
20260905125020 52 15 0.0 5.0 0.00 0.00 0.00 1 1019.9
20260905124546 52 15 2.0 11.0 0.00 0.00 0.00 1 1019.5
20260905124017 52 360 6.0 12.0 0.00 0.00 0.00 1 1019.1
20260905123525 52 347 8.0 12.0 0.00 0.00 0.00 1 1019.0
20260905123104 52 339 9.0 12.0 0.00 0.00 0.00 1 1019.1
20260905122518 53 317 9.0 12.0 0.00 0.00 0.00 1 1019.2
20260905122017 53 321 9.0 12.0 0.00 0.00 0.00 1 1019.3
20260905121551 53 328 5.0 11.0 0.00 0.00 0.00 1 1019.5
20260905121018 53 318 8.0 12.0 0.00 0.00 0.00 1 1019.6
20260905120519 54 360 8.0 13.0 0.00 0.00 0.00 1 1019.3
20260905120049 53 304 7.0 13.0 0.00 0.00 0.00 1 1019.2
20260905115523 53 309 10.0 14.0 0.00 0.00 0.00 1 1019.2
20260905115018 53 301 8.0 14.0 0.00 0.00 0.00 1 1019.2
20260905114554 53 305 7.0 11.0 0.00 0.00 0.00 1 1019.2
20260905114018 53 302 5.0 12.0 0.00 0.00 0.00 1 1019.2
20260905113518 52 327 7.0 14.0 0.00 0.00 0.00 1 1018.9
20260905113049 52 332 10.0 14.0 0.00 0.00 0.00 1 1018.8
20260905112518 52 310 7.0 12.0 0.00 0.00 0.00 1 1018.9
20260905112018 51 334 7.0 10.0 0.00 0.00 0.00 1 1018.9
20260905111555 51 325 6.0 8.0 0.00 0.00 0.00 1 1018.7
20260905111020 50 323 5.0 8.0 0.00 0.00 0.00 1 1018.7
20260905110528 50 307 5.0 8.0 0.00 0.00 0.00 1 1018.7
20260905110046 50 349 3.0 5.0 0.00 0.00 0.00 1 1018.7
20260905105518 51 349 2.0 5.0 0.00 0.00 0.00 1 1018.8
20260905105017 51 349 4.0 5.0 0.00 0.00 0.00 1 1018.8
20260905104541 51 349 2.0 3.0 0.00 0.00 0.00 1 1018.6
20260905104016 51 349 1.0 6.0 0.00 0.00 0.00 1 1018.3
20260905103516 51 349 4.0 6.0 0.00 0.00 0.00 1 1018.0
20260905103056 52 355 2.0 6.0 0.00 0.00 0.00 1 1018.8
20260905102520 52 355 2.0 9.0 0.00 0.00 0.00 1 1018.7
20260905102020 53 348 5.0 9.0 0.00 0.00 0.00 1 1018.3
20260905101548 53 5 4.0 11.0 0.00 0.00 0.00 1 1018.3
20260905101017 53 344 7.0 11.0 0.00 0.00 0.00 1 1018.3
20260905100517 53 323 7.0 11.0 0.00 0.00 0.00 1 1018.3
20260905100106 53 304 3.0 6.0 0.00 0.00 0.00 1 1018.3
20260905095517 54 320 0.0 10.0 0.00 0.00 0.00 1 1018.2
20260905095018 54 320 2.0 10.0 0.00 0.00 0.00 1 1018.2
20260905094551 53 337 5.0 8.0 0.00 0.00 0.00 1 1018.1
20260905094017 54 340 5.0 10.0 0.00 0.00 0.00 1 1018.1
20260905093518 54 329 6.0 10.0 0.00 0.00 0.00 1 1018.3
20260905093051 54 265 1.0 7.0 0.00 0.00 0.00 1 1018.3
20260905092519 54 265 5.0 7.0 0.00 0.00 0.00 1 1018.1
20260905092020 55 240 3.0 8.0 0.00 0.00 0.00 1 1018.2
20260905091554 55 240 5.0 8.0 0.00 0.00 0.00 1 1017.9
20260905091021 55 219 4.0 5.0 0.00 0.00 0.00 1 1017.7
20260905090519 54 9 3.0 5.0 0.00 0.00 0.00 1 1017.6
20260905090057 54 9 1.0 3.0 0.00 0.00 0.00 1 1017.6
20260905085518 54 9 0.0 2.0 0.00 0.00 0.00 1 1017.6
20260905085021 54 9 0.0 1.0 0.00 0.00 0.00 1 1017.8
20260905084605 54 9 0.0 3.0 0.00 0.00 0.00 1 1017.6
20260905084017 55 9 1.0 4.0 0.00 0.00 0.00 1 1017.2
20260905083524 55 9 1.0 6.0 0.00 0.00 0.00 1 1017.0
20260905083051 56 9 4.0 9.0 0.00 0.00 0.00 1 1016.9
20260905082519 56 334 5.0 11.0 0.00 0.00 0.00 1 1016.8
20260905082019 56 344 7.0 13.0 0.00 0.00 0.00 1 1016.7
20260905081547 56 360 10.0 13.0 0.00 0.00 0.00 1 1016.8
20260905081021 55 339 7.0 11.0 0.00 0.00 0.00 1 1017.2
20260905080516 56 313 5.0 9.0 0.00 0.00 0.00 1 1017.7
20260905080113 56 304 5.0 9.0 0.00 0.00 0.00 1 1017.9
20260905075521 56 334 6.0 11.0 0.00 0.00 0.00 1 1017.7
20260905075019 56 333 7.0 14.0 0.00 0.00 0.00 1 1017.8
20260905074546 57 323 7.0 14.0 0.00 0.00 0.00 1 1017.9
20260905074020 57 350 10.0 14.0 0.00 0.00 0.00 1 1017.8
20260905073517 56 314 9.0 16.0 0.00 0.00 0.00 1 1018.0
20260905073055 56 346 11.0 16.0 0.00 0.00 0.00 1 1017.8
20260905072518 56 308 5.0 11.0 0.00 0.00 0.00 1 1017.7
20260905072018 56 311 6.0 12.0 0.00 0.00 0.00 1 1017.7
20260905071551 56 336 8.0 14.0 0.00 0.00 0.00 1 1017.7
20260905071021 57 333 8.0 16.0 0.00 0.00 0.00 1 1017.6
20260905070516 57 332 7.0 16.0 0.00 0.00 0.00 1 1017.7
20260905070055 57 338 10.0 16.0 0.00 0.00 0.00 1 1017.3
20260905065517 57 360 9.0 16.0 0.00 0.00 0.00 1 1017.4
20260905065019 56 336 11.0 16.0 0.00 0.00 0.00 1 1017.2
20260905064553 56 292 10.0 16.0 0.00 0.00 0.00 1 1017.4
20260905064020 56 309 11.0 18.0 0.00 0.00 0.00 1 1017.6
20260905063519 56 328 12.0 17.0 0.00 0.00 0.00 1 1017.4
20260905063055 57 343 12.0 17.0 0.00 0.00 0.00 1 1017.4
20260905062516 56 309 10.0 16.0 0.00 0.00 0.00 1 1017.6
20260905062016 57 325 11.0 16.0 0.00 0.00 0.00 1 1017.5
20260905061558 56 342 9.0 15.0 0.00 0.00 0.00 1 1017.6
20260905061022 56 279 7.0 11.0 0.00 0.00 0.00 1 1017.6
20260905060518 56 336 7.0 11.0 0.00 0.00 0.00 1 1017.5
20260905060056 56 339 5.0 10.0 0.00 0.00 0.00 1 1017.5
20260905055518 56 298 4.0 10.0 0.00 0.00 0.00 1 1017.6
20260905055022 57 309 4.0 13.0 0.00 0.00 0.00 1 1017.3
20260905054552 57 271 6.0 13.0 0.00 0.00 0.00 1 1017.4
20260905054023 57 314 7.0 15.0 0.00 0.00 0.00 1 1017.1
20260905053519 57 346 10.0 16.0 0.00 0.00 0.00 1 1016.7
20260905053108 57 344 11.0 18.0 0.00 0.00 0.00 1 1016.5
20260905052517 57 325 13.0 19.0 0.00 0.00 0.00 1 1016.3
20260905052016 57 339 12.0 19.0 0.00 0.00 0.00 1 1016.8
20260905051555 57 340 13.0 18.0 0.00 0.00 0.00 1 1016.8
20260905051022 58 298 12.0 23.0 0.00 0.00 0.00 1 1017.2
20260905050521 58 335 16.0 23.0 0.00 0.00 0.00 1 1016.9
20260905050050 57 332 14.0 20.0 0.00 0.00 0.00 1 1016.8
20260905045520 57 296 8.0 12.0 0.00 0.00 0.00 1 1017.0
20260905045023 57 295 8.0 15.0 0.00 0.00 0.00 1 1017.3
20260905044549 58 328 9.0 15.0 0.00 0.00 0.00 1 1017.2
20260905044018 58 346 11.0 15.0 0.00 0.00 0.00 1 1016.9
20260905043520 59 349 9.0 13.0 0.00 0.00 0.00 1 1017.0
20260905043108 59 348 5.0 13.0 0.00 0.00 0.00 1 1017.3
20260905042521 59 315 6.0 19.0 0.00 0.00 0.00 1 1017.3
20260905042228 60 290 7.0 20.0 0.00 0.00 0.00 1 1017.2
20260905041542 60 311 12.0 22.0 0.00 0.00 0.00 1 1017.1
20260905041016 61 305 15.0 25.0 0.00 0.00 0.00 1 1016.6
20260905040517 60 329 18.0 25.0 0.00 0.00 0.00 1 1016.0
20260905040051 60 312 10.0 17.0 0.00 0.00 0.00 1 1016.2
20260905035518 61 303 11.0 19.0 0.00 0.00 0.00 1 1016.2
20260905035019 61 351 14.0 20.0 0.00 0.00 0.00 1 1016.1
20260905034545 61 333 14.0 22.0 0.00 0.00 0.00 1 1015.8
20260905034018 61 340 15.0 24.0 0.00 0.00 0.00 1 1015.5
20260905033519 61 331 17.0 23.0 0.00 0.00 0.00 1 1015.3
20260905033047 61 319 14.0 20.0 0.00 0.00 0.00 1 1015.8
20260905032520 61 345 13.0 23.0 0.00 0.00 0.00 1 1016.0
20260905032020 61 321 16.0 25.0 0.00 0.00 0.00 1 1015.9
20260905031548 61 17 15.0 20.0 0.00 0.00 0.00 1 1015.6
20260905031020 61 332 12.0 21.0 0.00 0.00 0.00 1 1015.7
20260905030518 61 313 15.0 22.0 0.00 0.00 0.00 1 1015.9
20260905030049 61 316 16.0 24.0 0.00 0.00 0.00 1 1015.5
20260905025520 61 338 17.0 24.0 0.00 0.00 0.00 1 1015.3
20260905025019 61 330 12.0 24.0 0.00 0.00 0.00 1 1015.3
20260905024551 61 344 14.0 23.0 0.00 0.00 0.00 1 1015.1
20260905024015 61 336 14.0 22.0 0.00 0.00 0.00 1 1015.0
20260905023523 61 320 15.0 23.0 0.00 0.00 0.00 1 1014.9
20260905023051 61 352 17.0 25.0 0.00 0.00 0.00 1 1014.7
20260905022517 62 346 15.0 25.0 0.00 0.00 0.00 1 1014.6
20260905022021 62 335 17.0 22.0 0.00 0.00 0.00 1 1014.6
20260905021552 62 269 13.0 28.0 0.00 0.00 0.00 1 1014.9
20260905021019 62 329 20.0 31.0 0.00 0.00 0.00 1 1014.2
20260905020522 62 316 20.0 31.0 0.00 0.00 0.00 1 1013.8
20260905020050 62 316 17.0 26.0 0.00 0.00 0.00 1 1013.4
20260905015516 62 324 18.0 27.0 0.00 0.00 0.00 1 1013.6
20260905015019 62 335 20.0 30.0 0.00 0.00 0.00 1 1013.8